| time (UTC) | temp F | wind direction | speed MPH | gust MPH | rain 1hr in | rain 24hr in | rain mn in | humidity % | barometer mb |
| 20260901190017 | 78 | 91 | 0.0 | 2.0 | 0.00 | 0.00 | 0.00 | 83 | 1016.3 |
| 20260901185032 | 78 | 88 | 1.0 | 3.0 | 0.00 | 0.00 | 0.00 | 82 | 1016.1 |
| 20260901184027 | 79 | 121 | 3.0 | 6.0 | 0.00 | 0.00 | 0.00 | 81 | 1016.0 |
| 20260901183022 | 79 | 106 | 3.0 | 6.0 | 0.00 | 0.00 | 0.00 | 81 | 1015.9 |
| 20260901182018 | 79 | 104 | 2.0 | 4.0 | 0.00 | 0.00 | 0.00 | 81 | 1016.0 |
| 20260901181033 | 79 | 120 | 3.0 | 7.0 | 0.00 | 0.00 | 0.00 | 80 | 1015.8 |
| 20260901180029 | 79 | 126 | 5.0 | 8.0 | 0.00 | 0.00 | 0.00 | 80 | 1015.9 |
| 20260901175024 | 80 | 137 | 3.0 | 7.0 | 0.00 | 0.00 | 0.00 | 80 | 1015.9 |
| 20260901174039 | 80 | 102 | 3.0 | 7.0 | 0.00 | 0.00 | 0.00 | 79 | 1015.8 |
| 20260901173034 | 80 | 113 | 5.0 | 8.0 | 0.00 | 0.00 | 0.00 | 78 | 1015.9 |
| 20260901172030 | 80 | 115 | 4.0 | 9.0 | 0.00 | 0.00 | 0.00 | 77 | 1015.9 |
| 20260901171045 | 80 | 130 | 4.0 | 7.0 | 0.00 | 0.00 | 0.00 | 75 | 1015.9 |
| 20260901170021 | 81 | 117 | 7.0 | 9.0 | 0.00 | 0.00 | 0.00 | 74 | 1015.9 |
| 20260901165016 | 81 | 103 | 4.0 | 7.0 | 0.00 | 0.00 | 0.00 | 72 | 1015.9 |
| 20260901164031 | 81 | 111 | 4.0 | 9.0 | 0.00 | 0.00 | 0.00 | 73 | 1016.1 |
| 20260901163046 | 82 | 110 | 3.0 | 7.0 | 0.00 | 0.00 | 0.00 | 70 | 1015.9 |
| 20260901162022 | 81 | 112 | 5.0 | 10.0 | 0.00 | 0.00 | 0.00 | 71 | 1016.1 |
| 20260901161017 | 81 | 87 | 2.0 | 7.0 | 0.00 | 0.00 | 0.00 | 74 | 1016.1 |
| 20260901160113 | 81 | 128 | 3.0 | 8.0 | 0.00 | 0.00 | 0.00 | 73 | 1016.3 |
| 20260901155028 | 81 | 97 | 2.0 | 6.0 | 0.00 | 0.00 | 0.00 | 76 | 1016.2 |
| 20260901154044 | 80 | 80 | 2.0 | 7.0 | 0.00 | 0.00 | 0.00 | 75 | 1016.2 |
| 20260901153018 | 80 | 91 | 3.0 | 6.0 | 0.00 | 0.00 | 0.00 | 76 | 1016.5 |
| 20260901152034 | 80 | 84 | 3.0 | 6.0 | 0.00 | 0.00 | 0.00 | 76 | 1016.8 |
| 20260901151030 | 80 | 124 | 1.0 | 3.0 | 0.00 | 0.00 | 0.00 | 73 | 1017.1 |
| 20260901150024 | 81 | 261 | 2.0 | 7.0 | 0.00 | 0.00 | 0.00 | 74 | 1017.4 |
| 20260901145020 | 81 | 114 | 7.0 | 13.0 | 0.00 | 0.00 | 0.00 | 72 | 1016.2 |
| 20260901144015 | 82 | 110 | 7.0 | 13.0 | 0.00 | 0.00 | 0.00 | 68 | 1016.4 |
| 20260901143031 | 82 | 98 | 3.0 | 8.0 | 0.00 | 0.00 | 0.00 | 67 | 1016.5 |
| 20260901142026 | 83 | 135 | 4.0 | 10.0 | 0.00 | 0.00 | 0.00 | 65 | 1016.9 |
| 20260901141021 | 83 | 101 | 2.0 | 4.0 | 0.00 | 0.00 | 0.00 | 63 | 1017.4 |
| 20260901140038 | 83 | 104 | 4.0 | 8.0 | 0.00 | 0.00 | 0.00 | 65 | 1017.2 |
| 20260901135032 | 83 | 208 | 2.0 | 4.0 | 0.00 | 0.00 | 0.00 | 65 | 1017.9 |
| 20260901134047 | 83 | 122 | 3.0 | 9.0 | 0.00 | 0.00 | 0.00 | 68 | 1017.7 |
| 20260901133022 | 83 | 137 | 4.0 | 7.0 | 0.00 | 0.00 | 0.00 | 69 | 1018.0 |
| 20260901132017 | 82 | 139 | 4.0 | 7.0 | 0.00 | 0.00 | 0.00 | 70 | 1017.9 |
| 20260901131032 | 82 | 153 | 2.0 | 6.0 | 0.00 | 0.00 | 0.00 | 72 | 1017.8 |
| 20260901130028 | 82 | 123 | 4.0 | 8.0 | 0.00 | 0.00 | 0.00 | 73 | 1017.7 |
| 20260901125023 | 82 | 142 | 6.0 | 10.0 | 0.00 | 0.00 | 0.00 | 73 | 1017.9 |
| 20260901124018 | 82 | 162 | 6.0 | 11.0 | 0.00 | 0.00 | 0.00 | 72 | 1017.9 |
| 20260901123034 | 82 | 128 | 8.0 | 15.0 | 0.00 | 0.00 | 0.00 | 73 | 1017.8 |
| 20260901122049 | 81 | 119 | 11.0 | 16.0 | 0.00 | 0.00 | 0.00 | 74 | 1016.9 |
| 20260901121044 | 82 | 117 | 8.0 | 15.0 | 0.00 | 0.00 | 0.00 | 73 | 1017.2 |
| 20260901120019 | 82 | 129 | 8.0 | 11.0 | 0.00 | 0.00 | 0.00 | 72 | 1017.8 |
| 20260901115035 | 82 | 121 | 6.0 | 9.0 | 0.00 | 0.00 | 0.00 | 68 | 1018.0 |
| 20260901114030 | 83 | 111 | 5.0 | 10.0 | 0.00 | 0.00 | 0.00 | 68 | 1018.0 |
| 20260901113025 | 83 | 107 | 6.0 | 10.0 | 0.00 | 0.00 | 0.00 | 69 | 1018.1 |
| 20260901112020 | 82 | 127 | 6.0 | 9.0 | 0.00 | 0.00 | 0.00 | 70 | 1018.4 |
| 20260901111015 | 81 | 120 | 6.0 | 9.0 | 0.00 | 0.00 | 0.00 | 73 | 1018.6 |
| 20260901110031 | 81 | 130 | 6.0 | 9.0 | 0.00 | 0.00 | 0.00 | 73 | 1018.6 |
| 20260901105026 | 82 | 105 | 4.0 | 10.0 | 0.00 | 0.00 | 0.00 | 72 | 1018.7 |
| 20260901104101 | 82 | 131 | 5.0 | 13.0 | 0.00 | 0.00 | 0.00 | 71 | 1018.2 |
| 20260901103017 | 82 | 132 | 6.0 | 14.0 | 0.00 | 0.00 | 0.00 | 70 | 1018.5 |
| 20260901102032 | 81 | 117 | 5.0 | 10.0 | 0.00 | 0.00 | 0.00 | 73 | 1018.8 |
| 20260901101047 | 82 | 122 | 5.0 | 10.0 | 0.00 | 0.00 | 0.00 | 73 | 1018.8 |
| 20260901100043 | 81 | 119 | 4.0 | 9.0 | 0.00 | 0.00 | 0.00 | 73 | 1018.8 |
| 20260901095018 | 81 | 136 | 4.0 | 8.0 | 0.00 | 0.00 | 0.00 | 74 | 1018.9 |
| 20260901094034 | 80 | 143 | 4.0 | 9.0 | 0.00 | 0.00 | 0.00 | 74 | 1018.8 |
| 20260901093049 | 80 | 126 | 5.0 | 10.0 | 0.00 | 0.00 | 0.00 | 74 | 1019.0 |
| 20260901092045 | 80 | 108 | 5.0 | 10.0 | 0.00 | 0.00 | 0.00 | 75 | 1018.7 |
| 20260901091020 | 80 | 95 | 4.0 | 9.0 | 0.00 | 0.00 | 0.00 | 77 | 1018.6 |
| 20260901090035 | 80 | 96 | 4.0 | 9.0 | 0.00 | 0.00 | 0.00 | 76 | 1018.7 |
| 20260901085030 | 80 | 135 | 3.0 | 7.0 | 0.00 | 0.00 | 0.00 | 76 | 1018.9 |
| 20260901084026 | 80 | 93 | 5.0 | 9.0 | 0.00 | 0.00 | 0.00 | 76 | 1018.4 |
| 20260901083021 | 80 | 93 | 3.0 | 9.0 | 0.00 | 0.00 | 0.00 | 77 | 1018.5 |
| 20260901082036 | 80 | 98 | 4.0 | 9.0 | 0.00 | 0.00 | 0.00 | 76 | 1018.3 |
| 20260901081032 | 79 | 87 | 2.0 | 8.0 | 0.00 | 0.00 | 0.00 | 77 | 1018.2 |
| 20260901080026 | 79 | 87 | 3.0 | 7.0 | 0.00 | 0.00 | 0.00 | 76 | 1018.2 |
| 20260901075022 | 79 | 92 | 3.0 | 6.0 | 0.00 | 0.00 | 0.00 | 75 | 1018.2 |
| 20260901074017 | 79 | 89 | 3.0 | 9.0 | 0.00 | 0.00 | 0.00 | 75 | 1018.2 |
| 20260901073033 | 78 | 74 | 2.0 | 4.0 | 0.00 | 0.00 | 0.00 | 75 | 1018.0 |
| 20260901072028 | 78 | 69 | 0.0 | 3.0 | 0.00 | 0.00 | 0.00 | 76 | 1017.9 |
| 20260901071023 | 78 | 42 | 0.0 | 2.0 | 0.00 | 0.00 | 0.00 | 77 | 1017.7 |
| 20260901070058 | 77 | 0.0 | 0.0 | 0.00 | 0.00 | 0.00 | 77 | 1017.8 | |
| 20260901065034 | 77 | 32 | 0.0 | 1.0 | 0.00 | 0.00 | 0.00 | 78 | 1017.7 |
| 20260901064029 | 77 | 30 | 1.0 | 3.0 | 0.00 | 0.00 | 0.00 | 78 | 1017.3 |
| 20260901063025 | 77 | 40 | 1.0 | 2.0 | 0.00 | 0.00 | 0.00 | 79 | 1017.2 |
| 20260901062020 | 76 | 345 | 1.0 | 2.0 | 0.00 | 0.00 | 0.00 | 80 | 1017.4 |
| 20260901061015 | 76 | 7 | 2.0 | 3.0 | 0.00 | 0.00 | 0.00 | 80 | 1017.2 |
| 20260901060031 | 76 | 341 | 1.0 | 3.0 | 0.00 | 0.00 | 0.00 | 81 | 1017.2 |
| 20260901055026 | 75 | 3 | 1.0 | 3.0 | 0.00 | 0.00 | 0.00 | 81 | 1016.9 |
| 20260901054022 | 75 | 29 | 1.0 | 3.0 | 0.00 | 0.00 | 0.00 | 81 | 1016.6 |
| 20260901053017 | 75 | 1 | 2.0 | 3.0 | 0.00 | 0.00 | 0.00 | 81 | 1016.9 |
| 20260901052032 | 76 | 16 | 3.0 | 6.0 | 0.00 | 0.00 | 0.00 | 81 | 1016.8 |
| 20260901051028 | 76 | 345 | 1.0 | 3.0 | 0.00 | 0.00 | 0.00 | 81 | 1016.9 |
| 20260901050023 | 76 | 18 | 2.0 | 3.0 | 0.00 | 0.00 | 0.00 | 81 | 1016.6 |
| 20260901045018 | 76 | 4 | 2.0 | 4.0 | 0.00 | 0.00 | 0.00 | 80 | 1016.9 |
| 20260901044034 | 76 | 23 | 1.0 | 2.0 | 0.00 | 0.00 | 0.00 | 80 | 1016.8 |
| 20260901043028 | 76 | 2 | 1.0 | 2.0 | 0.00 | 0.00 | 0.00 | 81 | 1017.1 |
| 20260901042023 | 76 | 346 | 1.0 | 3.0 | 0.00 | 0.00 | 0.00 | 82 | 1017.3 |
| 20260901041039 | 75 | 328 | 2.0 | 4.0 | 0.00 | 0.00 | 0.00 | 82 | 1016.9 |
| 20260901040035 | 75 | 347 | 1.0 | 3.0 | 0.00 | 0.00 | 0.00 | 83 | 1016.8 |
| 20260901035030 | 75 | 346 | 2.0 | 3.0 | 0.00 | 0.00 | 0.00 | 83 | 1017.0 |
| 20260901034045 | 75 | 12 | 1.0 | 1.0 | 0.00 | 0.00 | 0.00 | 83 | 1017.0 |
| 20260901033021 | 75 | 7 | 1.0 | 2.0 | 0.00 | 0.00 | 0.00 | 83 | 1017.1 |
| 20260901032016 | 75 | 10 | 2.0 | 3.0 | 0.00 | 0.00 | 0.00 | 83 | 1017.1 |
| 20260901031031 | 75 | 5 | 2.0 | 3.0 | 0.00 | 0.00 | 0.00 | 83 | 1017.2 |
| 20260901030026 | 75 | 358 | 2.0 | 3.0 | 0.00 | 0.00 | 0.00 | 84 | 1017.1 |
| 20260901025022 | 75 | 13 | 1.0 | 2.0 | 0.00 | 0.00 | 0.00 | 84 | 1017.0 |
| 20260901024017 | 75 | 6 | 2.0 | 3.0 | 0.00 | 0.00 | 0.00 | 84 | 1017.3 |
| 20260901023033 | 75 | 354 | 2.0 | 3.0 | 0.00 | 0.00 | 0.00 | 85 | 1017.2 |
| 20260901022028 | 75 | 4 | 2.0 | 2.0 | 0.00 | 0.00 | 0.00 | 85 | 1017.5 |
| 20260901021023 | 76 | 11 | 2.0 | 3.0 | 0.00 | 0.00 | 0.00 | 85 | 1017.4 |
| 20260901020019 | 76 | 12 | 1.0 | 3.0 | 0.00 | 0.00 | 0.00 | 84 | 1017.5 |
| 20260901015055 | 76 | 22 | 1.0 | 4.0 | 0.00 | 0.00 | 0.00 | 84 | 1017.6 |
| 20260901014030 | 76 | 13 | 2.0 | 4.0 | 0.00 | 0.00 | 0.00 | 84 | 1017.5 |
| 20260901013045 | 76 | 10 | 1.0 | 2.0 | 0.00 | 0.00 | 0.00 | 84 | 1017.6 |
| 20260901012021 | 76 | 14 | 1.0 | 2.0 | 0.00 | 0.00 | 0.00 | 84 | 1017.8 |
| 20260901011016 | 76 | 0 | 1.0 | 2.0 | 0.00 | 0.00 | 0.00 | 83 | 1017.9 |
| 20260901010032 | 76 | 359 | 1.0 | 2.0 | 0.00 | 0.00 | 0.00 | 84 | 1017.9 |
| 20260901005107 | 76 | 7 | 1.0 | 2.0 | 0.00 | 0.00 | 0.00 | 84 | 1018.0 |
| 20260901004023 | 76 | 3 | 2.0 | 4.0 | 0.00 | 0.00 | 0.00 | 83 | 1018.0 |
| 20260901003018 | 77 | 2 | 1.0 | 2.0 | 0.00 | 0.00 | 0.00 | 83 | 1018.1 |
| 20260901002033 | 77 | 8 | 1.0 | 2.0 | 0.00 | 0.00 | 0.00 | 83 | 1018.2 |
| 20260901001029 | 77 | 351 | 1.0 | 2.0 | 0.00 | 0.00 | 0.00 | 83 | 1018.2 |
| 20260901000024 | 77 | 336 | 0.0 | 1.0 | 0.00 | 0.00 | 0.00 | 83 | 1018.1 |
| 20260831235019 | 77 | 39 | 0.0 | 2.0 | 0.00 | 0.00 | 0.00 | 83 | 1018.3 |
| 20260831234035 | 77 | 25 | 3.0 | 6.0 | 0.00 | 0.00 | 0.00 | 82 | 1018.3 |
| 20260831233029 | 77 | 25 | 3.0 | 6.0 | 0.00 | 0.00 | 0.00 | 82 | 1018.4 |
| 20260831232025 | 77 | 36 | 3.0 | 6.0 | 0.00 | 0.00 | 0.00 | 82 | 1018.2 |
| 20260831231020 | 77 | 29 | 0.0 | 1.0 | 0.00 | 0.00 | 0.00 | 83 | 1018.2 |
| 20260831230016 | 77 | 127 | 0.0 | 1.0 | 0.00 | 0.00 | 0.00 | 83 | 1018.2 |
| 20260831225031 | 77 | 18 | 1.0 | 4.0 | 0.00 | 0.00 | 0.00 | 83 | 1018.2 |
| 20260831224047 | 77 | 9 | 2.0 | 6.0 | 0.00 | 0.00 | 0.00 | 84 | 1018.1 |
| 20260831223022 | 77 | 20 | 3.0 | 6.0 | 0.00 | 0.00 | 0.00 | 84 | 1018.1 |
| 20260831222017 | 77 | 19 | 3.0 | 6.0 | 0.00 | 0.00 | 0.00 | 84 | 1018.0 |
| 20260831221052 | 77 | 22 | 3.0 | 4.0 | 0.00 | 0.00 | 0.00 | 84 | 1018.0 |
| 20260831220028 | 77 | 25 | 1.0 | 2.0 | 0.00 | 0.00 | 0.00 | 83 | 1018.0 |
| 20260831215023 | 77 | 23 | 1.0 | 3.0 | 0.00 | 0.00 | 0.00 | 83 | 1017.8 |
| 20260831214038 | 77 | 29 | 1.0 | 3.0 | 0.00 | 0.00 | 0.00 | 83 | 1017.8 |
| 20260831213034 | 77 | 30 | 1.0 | 3.0 | 0.00 | 0.00 | 0.00 | 83 | 1017.8 |
| 20260831212028 | 77 | 24 | 2.0 | 4.0 | 0.00 | 0.00 | 0.00 | 83 | 1017.8 |
| 20260831211024 | 77 | 48 | 0.0 | 2.0 | 0.00 | 0.00 | 0.00 | 84 | 1017.7 |
| 20260831210019 | 77 | 49 | 2.0 | 4.0 | 0.00 | 0.00 | 0.00 | 84 | 1017.5 |
| 20260831205055 | 77 | 54 | 1.0 | 2.0 | 0.00 | 0.00 | 0.00 | 84 | 1017.5 |
| 20260831204030 | 77 | 55 | 1.0 | 3.0 | 0.00 | 0.00 | 0.00 | 84 | 1017.4 |
| 20260831203045 | 77 | 54 | 1.0 | 4.0 | 0.00 | 0.00 | 0.00 | 84 | 1017.4 |
| 20260831202020 | 77 | 65 | 1.0 | 3.0 | 0.00 | 0.00 | 0.00 | 84 | 1017.2 |
| 20260831201016 | 76 | 69 | 0.0 | 2.0 | 0.00 | 0.00 | 0.00 | 84 | 1017.1 |
| 20260831200032 | 76 | 85 | 1.0 | 3.0 | 0.00 | 0.00 | 0.00 | 84 | 1017.0 |
| 20260831195026 | 76 | 78 | 1.0 | 3.0 | 0.00 | 0.00 | 0.00 | 84 | 1016.8 |
| 20260831194022 | 76 | 55 | 1.0 | 3.0 | 0.00 | 0.00 | 0.00 | 85 | 1016.6 |
| 20260831193017 | 76 | 65 | 1.0 | 3.0 | 0.00 | 0.00 | 0.00 | 84 | 1016.3 |
| 20260831192033 | 77 | 67 | 1.0 | 4.0 | 0.00 | 0.00 | 0.00 | 84 | 1016.3 |
| 20260831191028 | 77 | 66 | 0.0 | 4.0 | 0.00 | 0.00 | 0.00 | 83 | 1016.1 |